www.pogodaiklimat.ru

Погода и климат >> Архив погоды >> Россия >> Краснодарский край >> Сочи аэропорт (Адлер)


ПОГОДА в Сочи аэропорту (Адлер)

  • Прогноз погоды в Сочи аэропорту (Адлер)
  • Монитор погоды в Сочи аэропорту (Адлер)
  • Климат города

АРХИВ ПОГОДЫ в Сочи аэропорту (Адлер)

Время (UTC), дата Ветер
(напр.,м/с)
 
Видим.   Явления Облачность Т
(С)
Тd
(С)
f
(%)
Тe
(С)
Тes
(С)
Комфортность P
(гПа)
Po
(гПа)
Тmin
(С)
Tmax
(С)
R
(мм)
R24
(мм)
S
(см)
18 22.04 СЗ 1 4000 м 10/0
[As op]
+7.5 +6.4 93 +6 +6 1018.3 1016.5
21 22.04 С 3 4000 м 10/0
[As op]
+7.4 +6.1 91 +4 +4 1014.5 1012.6
00 23.04 СВ 1 4000 м 10/0
[Ac As]
+8.2 +5.9 85 +7 +7 1008.8 1007.0
03 23.04 Ю 2 20 км 10/3 1500 м
[Cb cap Ac und]
+8.9 +7.0 88 +7 +7 1004.0 1002.2 +6.9
06 23.04 СВ 3 20 км {ливн. осадки} 10/4 1500 м
[Cb cap Ac und]
+12.7 +8.6 76 +11 +13 1000.1 998.3
09 23.04 В 6-11
{13}
20 км 10/3 1500 м
[Cb cap Ac und]
+22.2 +6.5 36 +23 +24 комфорт 994.6 992.9
12 23.04 СЗ 5-12
{23}
10 км 10/6 1470 м
[Cb cap Ac und]
+12.7 +8.6 76 +11 +11 1002.2 1000.4
15 23.04 Ю 3 10 км слабый ливневой дождь {гроза} 10/8 270 м
[Cb cap Ac und]
+10.4 +9.5 94 +8 +8 1007.3 1005.5 +23.6 4
18 23.04 З 6-11
{13}
4000 м в посл. час ливневой дождь {гроза} 10/10 330 м
[Cb cap]
+7.7 +5.0 83 +3 +3 1015.2 1013.4
21 23.04 ЮВ 3 4000 м слабый ливневой дождь 10/10 360 м
[Cb cap]
+6.9 +6.0 94 +4 +4 1017.8 1015.9
00 24.04 ЮВ 3 4000 м слабый ливневой дождь 10/10 450 м
[Cb cap]
+6.7 +5.1 90 +4 +4 1018.8 1016.9
03 24.04 В 6 10 км слабый ливневой дождь 10/10 500 м
[Cb cap]
+7.2 +5.9 91 +3 +3 1019.1 1017.2 +6.3 10
06 24.04 ЮВ 5 10 км слабый ливневой дождь 10/10 1200 м
[Cb cap]
+8.9 +4.6 74 +6 +6 1019.6 1017.8
09 24.04 В 5
{11}
10 км {ливн. осадки} 10/10 600 м
[Cb cap]
+9.3 +5.1 75 +6 +6 1020.3 1018.5
12 24.04 ЮЗ 7-11
{11}
4000 м слабый ливневой дождь 10/10 600 м
[Cb cap]
+8.7 +6.1 84 +4 +4 1022.1 1020.3
15 24.04 СВ 3 10 км в посл. час ливневой дождь 10/10 800 м
[Cb cap]
+7.1 +5.5 90 +4 +4 1022.2 1020.4 +10.9 8
18 24.04 В 4 4000 м {ливн. осадки} 10/5 630 м
[Cb cap Ac und]
+6.1 +5.0 93 +2 +2 1024.2 1022.3
21 24.04 СЗ 3 4000 м гроза, ливневой дождь 10/10 700 м
[Cb cap]
+4.4 +3.4 93 +1 +1 1025.2 1023.3
00 25.04 СВ 4 4000 м в посл. час ливневой дождь {гроза} 10/8 900 м
[Cb cap Ac und]
+5.0 +4.1 94 +1 +1 1025.7 1023.8
03 25.04 СВ 4 10 км {гроза, ливн. осадки} 8/8 800 м
[Cb cap]
+4.9 +4.0 94 +1 +1 1027.5 1025.6 +4.2 3
06 25.04 В 2 10 км {гроза, ливн. осадки} 8/4 900 м
[Cb cap Ci fib]
+8.0 +5.8 86 +6 +11 1029.7 1027.8
09 25.04 СВ 5 10 км слабый ливневой дождь 9/9 600 м
[Cb cap]
+6.9 +5.1 88 +3 +4 1032.0 1030.1
12 25.04 Ю 3 20 км {ливн. осадки} 3/3 1000 м
[Cb cap]
+11.3 +2.9 56 +10 +16 1031.4 1029.5
15 25.04 Ю 2 20 км ясно +9.9 +4.3 68 +9 +10 1031.2 1029.3 +12.3 6
18 25.04 штиль 0 4000 м 1/0
[Ac trans]
+6.1 +4.7 91 +5 +5 1031.3 1029.4
21 25.04 СВ 2 4000 м ясно +4.6 +3.6 93 +2 +2 1030.4 1028.5
00 26.04 В 3 4000 м ясно +3.8 +2.6 92 -0 -0 1028.8 1026.9
03 26.04 В 2 20 км ясно +3.0 +1.2 88 -0 0 1028.4 1026.5 +2.2
06 26.04 З 1 20 км ясно +12.3 +4.5 59 +13 +23 1028.2 1026.3
09 26.04 З 6 20 км ясно +13.3 +4.1 54 +11 +18 1026.5 1024.7
12 26.04 З 6 20 км ясно +14.5 +5.1 53 +13 +17 1025.1 1023.3
15 26.04 З 6 20 км ясно +14.0 +2.9 47 +12 +13 1023.0 1021.2 +16.4
18 26.04 В 2 4000 м ясно +10.2 +5.5 73 +9 +9 1023.0 1021.2
21 26.04 В 2 4000 м ясно +7.5 +5.0 84 +5 +5 1022.6 1020.7
00 27.04 В 5 4000 м ясно +9.9 +3.2 63 +7 +7 1022.5 1020.7
03 27.04 СВ 5 20 км ясно +8.1 +4.0 75 +5 +5 1022.2 1020.4 +7.0
06 27.04 В 2 20 км ясно +17.3 +3.8 41 +18 +27 1022.6 1020.8
09 27.04 З 4 20 км ясно +18.2 +1.9 34 +18 +30 опасность
простуды
1021.9 1020.1
12 27.04 З 5 20 км ясно +18.5 +2.1 33 +18 +24 1021.0 1019.2
15 27.04 СЗ 5 20 км ясно +16.8 +1.9 37 +16 +17 1020.4 1018.6 +19.8
18 27.04 ЮЗ 1 4000 м ясно +13.0 +6.8 66 +13 +13 1020.3 1018.5
21 27.04 В 2 4000 м ясно +11.2 +3.4 59 +10 +10 1019.9 1018.1
00 28.04 В 1 4000 м ясно +8.6 +4.8 77 +8 +8 1019.4 1017.6
03 28.04 СВ 4 4000 м ясно +9.9 +4.3 68 +7 +8 1019.3 1017.5 +7.6
06 28.04 ЮЗ 1 20 км ясно +18.6 +5.0 41 +20 +30 1019.5 1017.7
09 28.04 З 5 20 км ясно +20.2 +3.4 33 +21 +30 комфорт 1019.3 1017.5
12 28.04 З 5
{11}
20 км ясно +20.0 +4.8 37 +20 +27 1018.1 1016.3
15 28.04 З 2 20 км ясно +20.8 +6.7 40 +22 +24 комфорт 1016.8 1015.0 +21.7
18 28.04 штиль 0 4000 м ясно +14.4 +6.1 57 +14 +14 1016.9 1015.1
21 28.04 В 4 4000 м ясно +14.9 +6.2 56 +14 +14 1016.7 1014.9
00 29.04 В 5 4000 м ясно +13.9 +4.6 53 +12 +12 1015.9 1014.1
03 29.04 В 3 20 км ясно +10.9 +5.5 69 +9 +9 1016.5 1014.7 +10.8
06 29.04 штиль 0 20 км ясно +19.4 +7.3 45 +20 +32 1016.3 1014.5
09 29.04 З 2 20 км ясно +19.8 +7.8 46 +21 +39 комфорт 1016.5 1014.7
12 29.04 З 2 20 км 1/1 1500 м
[Cu med, cong]
+20.9 +6.8 40 +23 +33 комфорт 1015.4 1013.6
15 29.04 З 4 20 км ясно +19.4 +7.3 45 +20 +21 1014.0 1012.2 +22.2

 

Местоположение метеостанции Сочи аэропорт (Адлер) (Краснодарский край, Россия): широта 43.43 долгота 39.90 высота над уровнем моря 15 м.

В архиве по умолчанию представлена погода в Сочи аэропорту (Адлер) за последнюю неделю. Архивные данные за месяц целиком и за предыдущие месяцы, начиная с января 2011 года, Вы можете получить, выбрав интересующий диапазон дат из раскрывающегося списка и нажав кнопку "Ввод!".

Внимание! Время в таблицах - всемирное. Для получения местного времени необходимо прибавить поправку, которая в Сочи аэропорту (Адлер) равна 3 ч.

Смотрите также архив погоды в соседних городах и на ближайших метеорологических станциях:

Погода в Сочи (Краснодарский край, Россия) (20 км)
Погода в Кепше (Краснодарский край, Россия) (24 км)
Погода в Красной Поляне (Краснодарский край, Россия) (37 км)
Погода в Гузерипле (Адыгея, Россия) (66 км)
Погода в Туапсе (Краснодарский край, Россия) (100 км)
Погода в Псебае (Краснодарский край, Россия) (105 км)
Погода в Горном (Краснодарский край, Россия) (107 км)
Погода в Шунтуке (Адыгея, Россия) (117 км)
Погода в Майкопе (Адыгея, Россия) (133 км)
Погода в Джубге (Краснодарский край, Россия) (138 км)

Пояснения к столбцам:

Ветер - указаны скорость ветра в м/с - средняя за 10 мин, порывы в срок и между сроками (в фигурных скобках) и направление, откуда дует ветер: С - северный, СВ - северо-восточный, В - восточный, ЮВ - юго-восточный, Ю - южный, ЮЗ - юго-западный, З - западный, СЗ - северо-западный.
Видимость - горизонтальная дальность видимости в метрах или километрах. При видимости от 1 до 10 км при отсутствии осадков обычно наблюдается дымка, при ухудшении видимости до 1 км и менее - туман. В сухую погоду видимость может ухудшаться дымом, пылью или мглою.
Явления - указаны атмосферные явления, наблюдавшиеся в срок или в последний час перед сроком; фигурными скобками обозначены явления, наблюдавшиеся между сроками (за 1-3 часа до срока); квадратными скобками обозначены град или гололедные отложения с указанием их диаметра в мм.
Облачность - указаны через наклонную черту общая и нижняя облачность в баллах и высота нижней границы облаков в метрах; квадратными скобками обозначены формы облаков: Ci - перистые, Cs - перисто-слоистые, Cc - перисто-кучевые, Ac - высококучевые, As - высокослоистые, Sc - слоисто-кучевые, Ns - слоисто-дождевые, Cu - кучевые, Cb - кучево-дождевые. Подробнее классификацию облаков см. в Атласе облаков (PDF).
T - Температура воздуха - температура, измеренная на высоте 2 м над землей.
Td - Температура точки росы - температура, при понижении до которой содержащийся в воздухе водяной пар достигнет насыщения.
f - Относительная влажность воздуха - влажноcть воздуха, измеренная на высоте 2 м над землей.
Te - Эффективная температура - температура, которую ощущает одетый по сезону человек в тени. Характеристика душности погоды. При расчете учитывается влияние влажности воздуха и скорости ветра на теплоощущения человека.
Tes - Эффективная температура на солнце - температура, которую ощущает человек, с поправкой на солнечный нагрев. Характеристика знойности погоды. Зависит от высоты солнца над горизонтом, облачности и скорости ветра. Ночью, в пасмурную погоду, а также при ветре 12 м/с и более поправка равна нулю.
P - Атмосферное давление - приведенное к уровню моря атмосферное давление.
Po - Атмосферное давление - измеренное на уровне метеостанции атмосферное давление.
Tmin - Минимальная температура - минимум температуры воздуха на высоте 2 м над землей.
Tmax - Максимальная температура - максимум температуры воздуха на высоте 2 м над землей.
R - Количество осадков - Количество выпавших осадков за период времени, мм. При наведении курсора мыши на число - период времени, за который выпало указанное количество осадков.
R24 - Количество осадков - Количество выпавших осадков за 24 часа, мм.
S - Снежный покров - Высота снежного покрова, см. При наведении курсора мыши на число - состояние снежного покрова и степень покрытия местности в баллах.